Location: Étang Rond
(42.7927°N, 1.0661°E)
Time: 01:33:37
(UTC+00:00)

SMAP - Pass Details

Date: 08 November 2025
Orbit: 681 x 683 km, 98.1° (Epoch: 07 December)

Event Time Altitude Azimuth Distance (km) Brightness Sun altitude
Rises 05:52:59 0° 18° (NNE) 3,054 6.5 -8.8°
Reaches altitude 10° 05:55:18 10° 24° (NNE) 2,133 5.7 -8.4°
Maximum altitude 05:59:49 50° 99° (E) 874 4.2 -7.6°
Drops below altitude 10° 06:04:19 10° 175° (S) 2,117 5.9 -6.8°
Sets 06:06:36 0° 181° (S) 3,027 6.6 -6.4°
